Погода в Ниде

Поиск расширенной информации на нашем сайте:

Полезная информация:

Новости сайта



02.01.2020
Опубликован Долгосрочный прогноз погоды по городам России и ближнего зарубежья на январь 2020 года.
Карты: Прогноз на январь и февраль 2020 года, Сравнение прогнозируемой аномалии приземной температуры воздуха на январь 2020 года по разным моделям.




Погода в Ниде - сегодня

Время (UTC), дата Ветер
(°,м/с) 
Видим.   Явления Облачность Т
(°С)
Тd
(°С)
f(%) Тe
(°С)
Pmin
(гПа)
dP
(гПа)
Po
(мм)
O2
(г/м3)
Тmin Tmax R s Состояние
почвы
03 24.02.21 190 (Ю) 3-4{06}  2200 м  дымка  10/10 200 м 
+3.9 +2.9 93 +3  1029.1  -0.2  772  306           
06 24.02.21 230 (ЮЗ) 3-5{09}  4100 м  дымка  3/0 средняя, верхняя 
[Ac trans|Ci sp]
+4 +3.1 94 +3  1029.3  0.2  772  305  +3.1      мокрый или
старый снег
50-90% 
09 24.02.21 230 (ЮЗ) 3-5{08}  7000 м  дымка  9/0 средняя, верхняя 
[Ac trans|Ci fib]
+8.1 +5.7 85 +7  1028.4  -0.9  771  300        мокрый или
старый снег
50-90% 
12 24.02.21 220 (ЮЗ) 3-5{07}  11000 м    9/9 1350 м 
[Sc]
+9.5 +5.9 78 +9  1028.9  0.4  771  299        мокрый или
старый снег
50-90% 
15 24.02.21 230 (ЮЗ) 4-8{09}  9000 м  дымка  9/0 средняя, верхняя 
[Ac trans|Ci sp]
+8.2 +5.7 84 +7  1027.2  -1.6  770  300        мокрый или
старый снег
10-40% 
21 24.02.21 220 (ЮЗ) 4-8{10}  11000 м    9/0 
+9.1 +5.8 80 +8  1025.8  -0.7  769  299           
00 25.02.21 220 (ЮЗ) 4-8{12}  10 км    9/9 1500 м 
+6.7 +4.5 86 +5  1025.4  -0.5  769  302           
03 25.02.21 220 (ЮЗ) 3-7{09}  10 км    9/0 
+5.8 +4.3 90 +5  1024.7  -0.7  768  302           
12 25.02.21 210 (ЮЗ) 5-8{14}  17000 м    ясно <0100 м 
+14.5 +6.7 59 +14  1023.4  -0.8  767  293          мокрый или
старый снег
10-40% 
15 25.02.21 210 (ЮЗ) 4-8{11}  19000 м    ясно <0100 м 
+13.4 +6.3 62 +13  1021.4  -2  766  292           
18 25.02.21 220 (ЮЗ) 4-8{11}  7000 м  дымка  ясно <0100 м 
+8.6 +5.8 83 +7  1020.8  -0.6  765  297    +14.8       
21 25.02.21 220 (ЮЗ) 4-7{11}  6000 м  дымка  1/0 
+7.1 +5 86 +6  1020.1  -0.8  765  300           
00 26.02.21 220 (ЮЗ) 3-6{10}  4600 м  дымка  1/0 
+4.8 +4 95 +4  1019.3  -0.8  764  302           
03 26.02.21 220 (ЮЗ) 3-6{09}  3400 м  дымка  6/6 100 м 
+3.8 +3.5 98 +3  1018.9  -0.4  764  303           
06 26.02.21 230 (ЮЗ) 3-8{10}  5000 м  дымка  10/10 210 м 
[Frnb]
+3.9 +3.3 96 +3  1018.8  -0.1  764  302  +3.5        влажная 
12 26.02.21 240 (ЮЗ) 4-9{11}  17000 м    10/10 500 м 
[Sc]
+4.4 +2.7 89 +3  1019  -0.3  764  303           
15 26.02.21 230 (ЮЗ) 4-10{11}  12000 м    10/10 300 м 
[Frnb]
+3.9 +2.7 92 +2  1018.3  -0.6  763  302           
18 26.02.21 240 (ЮЗ) 4-7{11}  10 км    1/1 300 м 
[Cu hum]
+3.5 +2.8 95 +2  1018.3  763  302    +4.6       
21 26.02.21 250 (З) 4-8{10}  12000 м    4/0 
+3.7 +2.8 94 +2  1018.8  0.5  764  303           
00 27.02.21 290 (З) 3-6{08}  19000 м    9/9 1500 м 
+3.9 +2.3 89 +3  1020  1.1  765  303           
03 27.02.21 320 (СЗ) 4-6{08}  20000 м    ясно 
+3.5 +1.9 89 +2  1022  2.1  766  305           
06 27.02.21 310 (СЗ) 4-6{08}  20000 м    1/0 верхняя 
[Ci sp]
+3.4 +1.4 87 +1  1024.5  2.4  768  305  +3.3        влажная 
09 27.02.21 310 (СЗ) 4-7{10}  20000 м    1/1 1000 м 
[Cu hum]
+4.9 +1.8 80 +3  1026.9  2.5  770  304           
12 27.02.21 310 (СЗ) 5-9{11}  20000 м    3/1 1000 м верхняя 
[Cu med, cong|Ci fib]
+5 +1.9 80 +3  1028.7  1.8  771  305           
15 27.02.21 300 (СЗ) 4-7{11}  20000 м    1/1 1000 м 
[Cu hum]
+3.8 +1.6 86 +2  1030.1  1.3  772  306           
Время (UTC), дата Ветер
(°,м/с) 
Видим.   Явления Облачность Т
(°С)
Тd
(°С)
f(%) Тe
(°С)
Pmin
(гПа)
dP
(гПа)
Po
(мм)
O2
(г/м3)
Тmin Tmax R s Состояние
почвы

Для получения пояснительной информации подведите курсор к названию столбца.

ПОГОДА в Ниде - архив

Всё, что Вы хотите узнать о погоде в Ниде - удобно и подробно!

Выберите нужную дату (начиная с 1 января 2019* года) и нажмите кнопку "Найти".
Будут отображены архивные сводки погоды по пункту Нида, начиная с указанной даты.


Отображать данные в формате CSV (для использования в таблицах Excel)


Внимание! Наш архив погоды предназначен исключительно для личного некоммерческого использования в познавательных целях. Если Вам необходимы официальные справки о состоянии погоды (для производственных, юридических, коммерческих и т.п. целей), обращайтесь в органы Росгидромета.

*Примечание: данная дата относится к архиву по метеостанциям СССР (Россия, СНГ, Балтия).
Архив по метеостанциям Зарубежной Европы и Азии (кроме Китая) хранится 10 дней, по другим регионам земного шара (Китай, Африка, Америка, Австралия, Океания) - 1 день.

Нида - район местоположения метеостанции


Название, широта, долгота, высота метеостанции:
Нида 55.3°ш. 21°д. 3 м над ур. моря [Литва]

Дополнительная информация

В oтличие oт бoльшинства пoгoдных сайтoв мы публикуем пoдрoбную метеoинфoрмацию в детальнoм прoфессиoнальнoм фoрмате.

Характеристики температуры и влажнoсти вoздуха измеряются на высoте 2 м в тени вдали oт зданий и деревьев.
Скoрoсть ветра измеряется на высoте 10 м (на урoвне рoста челoвека скoрoсть ветра ниже в 1.5-2 раза). Если метеoстанция нахoдится в гoрoде или в лесу, тo скoрoсть ветра занижена на 2-4 м/с пo сравнению с oткрытым местoм. Скoрoсть ветра над акватoриями крупных рек и oзёр, а также на вершинах хoлмoв на 2-5 м/с выше, чем в oбычных услoвиях.
Атмoсфернoе давление в разных тoчках местнoсти мoжет значительнo oтличаться oт давления на метеoстанции, в зависимoсти oт услoвий рельефа (при пoдъёме на 10 м давление пoнижается примернo на 1 мм рт.ст.).